Riverbend Golf Club, California, United States
Lat: 36.93N, Lon: 119.76W
Wx Zone: CAZ090
Local Info
Past Weather Observations for Today

NOTE: This archive is for the closest National Weather Service station to Riverbend Golf Club. Information may differ from the station used for current weather conditions.

Time Weather Temperature Dewpoint Humidity Pressure Winds Precip Visibility
22:53
Clear
55°F / 13°C 37°F / 3°C 51% 30.04 in
(1017 mb)
NW 18.4 mph
(NW 30 kph)
- 10SM
21:53
Clear
57°F / 14°C 37°F / 3°C 48% 30.01 in
(1016 mb)
NW 18.4 mph
(NW 30 kph)
- 10SM
20:53
Partly Cloudy
61°F / 16°C 34°F / 1°C 36% 30.01 in
(1016 mb)
NW 17.3 mph
(NW 28 kph)
- 10SM
19:53
Partly Cloudy
63°F / 17°C 28°F / -2°C 27% 30.01 in
(1016 mb)
NW 15 mph
(NW 24 kph)
- 10SM
18:53
Partly Cloudy
64°F / 18°C 28°F / -2°C 26% 30.01 in
(1016 mb)
NW 15 mph
(NW 24 kph)
- 10SM
17:53
Partly Cloudy
66°F / 19°C 28°F / -2°C 24% 29.98 in
(1015 mb)
NNW 15 mph
(NNW 24 kph)
- 10SM
16:53
Partly Cloudy
70°F / 21°C 27°F / -3°C 20% 30.01 in
(1016 mb)
NW 21.9 mph
(NW 35 kph)
- 10SM
15:53
Partly Cloudy
72°F / 22°C 21°F / -6°C 15% 30.01 in
(1016 mb)
NW 21.9 mph
(NW 35 kph)
- 10SM
14:53
Partly Cloudy
72°F / 22°C 25°F / -4°C 17% 30.01 in
(1016 mb)
NW 17.3 mph
(NW 28 kph)
- 10SM
13:53
Partly Cloudy
70°F / 21°C 30°F / -1°C 23% 30.04 in
(1017 mb)
WNW 16.1 mph
(WNW 26 kph)
- 10SM
12:53
Partly Cloudy
70°F / 21°C 36°F / 2°C 29% 30.04 in
(1017 mb)
NW 17.3 mph
(NW 28 kph)
- 10SM
11:53
Partly Cloudy
68°F / 20°C 36°F / 2°C 30% 30.06 in
(1018 mb)
NW 16.1 mph
(NW 26 kph)
- 10SM
10:53
Partly Cloudy
64°F / 18°C 37°F / 3°C 37% 30.06 in
(1018 mb)
WNW 16.1 mph
(WNW 26 kph)
- 10SM
09:53
Partly Cloudy
64°F / 18°C 41°F / 5°C 43% 30.06 in
(1018 mb)
NW 16.1 mph
(NW 26 kph)
- 10SM
08:53
Overcast
57°F / 14°C 45°F / 7°C 63% 30.06 in
(1018 mb)
NNW 13.8 mph
(NNW 22 kph)
- 10SM
07:53
Overcast
57°F / 14°C 45°F / 7°C 63% 30.06 in
(1018 mb)
W 16.1 mph
(W 26 kph)
- 10SM
07:35
Overcast
57°F / 14°C 46°F / 8°C 67% 30.04 in
(1017 mb)
NW 16.1 mph
(NW 26 kph)
- 10SM
06:53
Overcast
57°F / 14°C 46°F / 8°C 67% 30.04 in
(1017 mb)
NW 13.8 mph
(NW 22 kph)
0.00 in
(0.00 mm)
10SM
05:53
Overcast
Light Rain
57°F / 14°C 46°F / 8°C 67% 30.01 in
(1016 mb)
WNW 18.4 mph
(WNW 30 kph)
0.00 in
(0.00 mm)
10SM
04:53
Overcast
59°F / 15°C 45°F / 7°C 59% 29.95 in
(1014 mb)
WNW 15 mph
(WNW 24 kph)
- 10SM
03:53
Overcast
61°F / 16°C 43°F / 6°C 52% 29.95 in
(1014 mb)
NW 13.8 mph
(NW 22 kph)
- 10SM
02:53
Overcast
61°F / 16°C 39°F / 4°C 45% 29.92 in
(1013 mb)
NW 17.3 mph
(NW 28 kph)
- 10SM
01:53
Overcast
63°F / 17°C 28°F / -2°C 27% 29.92 in
(1013 mb)
NW 16.1 mph
(NW 26 kph)
- 10SM
00:53
Overcast
64°F / 18°C 30°F / -1°C 28% 29.92 in
(1013 mb)
NW 10.4 mph
(NW 17 kph)
- 10SM
Time Weather Temperature Dewpoint Humidity Pressure Winds Precip Visibility


Weather for websites

WeatherForYou.com, LLC is not responsible for any damages or problems caused by this service. Current weather conditions are obtained from the closest station including government and personal stations which may have varying degrees of accuracy. Weather forecasts are derived from the NOAA NDFD. Like all things, this site belongs to Jesus Christ... He just trusts me to maintain it. If you have any questions or comments email webmaster@weatherforyou.com

Copyright © 2014, WeatherForYou.com LLC. All rights reserved.